Terug naar catalogus

FENGYUN 1C DEB

ActiefSSO
NORAD 30231·DEBRIS·🇨🇳 China

Gelanceerd May 10, 1999 vanaf Taiyuan Satellite Launch Center

Loading…

Volgende Passages (komende 24 uur)

TLE

VersSource: Space-Track

Epoch: Sep 13, 2026, 15:40 UTC

1 30231U 99025WQ  26256.65302791  .00000654  00000-0  35210-3 0  9997
2 30231  98.7725 300.9670 0126766 329.0540 154.5939 14.12224701  8980

Volg FENGYUN 1C DEB in realtime met AllMySat

Download on the App Store